Theta_e
313 312 312 312 310 310 309 308 308 308 308 307 307 307 308 309 309 309 309 310 311 312 313 313 314 314 314 312 310 310 309 309 309 309 310 310 311 311 313 315 314 313 311 311 311 311 312 312 314 315 316 317 316 318 318 318 318 320 331 332 321 322 322 319 322 317 318 321 315 313 315 315 316 315 315 316 316 316 316 315 317 318 318 318 319 319 316 314
312 312 312 310 311 311 309 309 309 308 309 308 308 308 308 309 309 310 310 311 311 312 313 313 314 314 312 310 310 310 309 309 309 309 310 311 311 312 313 315 312 311 310 311 311 311 312 313 314 316 317 317 316 318 318 317 317 320 330 328 325 329 321 315 318 313 314 317 314 314 314 315 316 315 315 317 316 315 316 316 316 318 318 318 318 318 316 313
312 311 311 310 311 310 309 309 309 309 309 309 309 309 310 310 310 311 311 311 312 312 312 313 314 312 310 310 309 309 308 308 309 309 310 311 312 312 314 314 311 311 311 311 311 311 313 313 314 316 316 316 316 317 317 317 317 317 322 325 329 326 316 313 314 313 314 315 314 314 313 314 315 315 315 316 315 314 316 317 316 317 317 317 317 317 316 313
312 310 310 311 309 309 309 309 309 309 309 310 310 310 310 310 310 310 311 311 312 312 313 313 312 311 310 310 309 308 309 308 309 310 311 311 312 313 314 313 311 311 311 311 311 312 313 313 314 316 316 315 315 316 316 316 316 315 321 328 324 316 315 315 313 314 315 314 314 314 314 314 314 315 315 314 316 315 315 316 316 316 316 316 315 316 316 314
311 310 310 309 309 309 309 309 309 309 309 310 310 310 310 310 310 310 311 312 312 312 312 312 311 310 310 310 309 308 309 309 310 310 311 312 313 314 313 312 311 311 311 311 311 313 314 314 314 315 314 314 314 316 316 315 316 315 316 318 315 312 316 315 313 315 314 314 315 313 314 315 314 315 314 315 319 319 315 316 317 316 315 316 315 315 316 315
310 309 309 308 309 309 309 309 309 309 310 310 310 310 310 310 310 311 311 311 312 311 311 311 310 310 310 309 308 309 310 311 312 310 311 314 313 313 312 311 311 311 311 311 311 314 314 313 313 313 313 313 314 315 315 314 315 318 315 312 313 313 315 315 314 315 314 315 314 313 314 314 313 314 314 314 317 317 315 316 316 316 315 315 315 315 316 316
310 309 309 308 308 309 309 309 309 309 310 310 310 310 310 310 310 311 311 311 311 310 310 310 310 310 310 309 308 309 310 311 312 311 312 314 313 312 312 311 312 311 311 311 312 314 314 313 313 313 313 313 313 312 314 314 314 320 318 311 313 314 314 315 314 315 314 315 315 314 314 314 314 315 313 313 315 315 314 316 316 316 316 315 315 315 314 315
311 310 309 307 308 308 308 309 309 309 309 310 310 310 310 310 310 310 311 311 310 310 310 310 310 310 309 309 308 309 311 312 313 312 312 313 312 311 312 312 311 311 311 311 312 314 313 313 313 312 313 312 313 313 313 314 313 318 318 312 313 314 314 315 314 315 314 314 314 314 314 313 314 314 312 313 315 315 314 316 316 316 315 315 315 315 315 315
311 310 309 307 307 308 308 309 309 310 310 310 310 310 310 310 310 310 310 310 310 310 310 310 310 310 309 309 308 309 310 312 313 312 312 313 312 311 312 312 312 312 312 312 312 313 313 313 313 314 313 311 313 313 313 315 314 314 314 313 312 312 313 314 314 314 314 314 314 314 314 313 313 313 314 315 315 315 315 316 317 316 315 315 315 315 315 315
310 309 309 307 307 308 308 309 309 310 309 309 310 310 310 310 310 310 310 310 310 310 310 310 310 310 309 309 309 309 310 312 313 313 312 312 311 312 312 312 312 312 312 312 312 312 313 313 313 314 314 313 312 312 312 314 314 313 313 313 312 312 313 313 313 314 314 314 314 315 315 314 313 314 317 317 315 315 315 315 316 316 316 316 316 315 316 315
310 309 309 307 307 307 308 309 309 309 309 309 309 310 310 310 310 310 310 310 310 310 310 310 310 310 309 309 309 310 312 312 313 314 313 311 311 312 312 312 312 312 312 313 313 313 314 313 313 314 315 314 313 313 313 313 314 313 313 314 313 312 313 313 313 313 314 314 313 315 314 313 313 315 317 315 315 316 315 315 316 316 316 316 316 316 316 316
310 309 309 307 307 307 307 308 308 309 309 309 309 310 310 310 310 310 310 310 310 310 309 309 309 309 309 309 309 311 315 314 313 314 313 312 312 312 312 312 312 312 313 313 313 314 314 315 314 314 315 314 314 315 314 314 314 313 314 317 316 316 316 313 312 313 313 315 313 313 313 315 316 316 316 314 315 316 315 315 315 316 316 315 316 316 316 316
310 309 308 307 307 307 308 308 308 309 309 309 310 310 309 310 310 310 310 310 310 310 309 309 309 309 309 308 309 311 315 315 313 313 313 312 311 312 312 312 312 312 312 312 314 314 314 316 315 315 314 314 315 314 314 313 313 314 314 317 320 320 319 312 311 313 313 314 313 312 314 318 319 314 313 314 314 315 315 315 315 315 316 315 316 316 316 316
309 309 309 308 307 307 307 308 308 308 309 309 309 310 310 310 310 310 310 310 310 309 309 309 309 309 309 309 310 311 314 315 314 313 312 312 311 312 312 312 312 312 312 312 313 314 315 316 315 315 314 314 314 313 317 314 314 316 312 318 322 316 319 316 310 313 314 314 313 311 314 319 320 313 312 314 313 313 314 315 315 315 315 316 316 315 316 316
310 309 308 308 307 307 307 308 308 308 309 309 309 309 309 310 310 310 310 310 310 309 308 309 309 309 308 309 311 311 312 313 314 313 312 312 311 312 311 312 312 312 313 313 313 313 315 315 315 315 314 315 314 315 320 318 321 321 313 321 322 313 320 320 310 311 314 314 312 312 314 319 319 314 313 314 314 313 313 314 315 315 316 315 316 316 316 316
310 309 309 308 307 307 308 307 308 308 308 309 309 309 309 310 310 309 309 309 309 308 308 309 309 309 308 309 312 312 311 312 313 312 312 312 311 312 312 312 313 314 314 313 313 313 315 316 315 314 313 314 315 318 322 321 324 324 317 321 321 315 319 319 312 310 312 314 313 312 314 319 319 314 314 314 314 314 313 314 314 315 316 315 315 316 316 316
310 309 308 308 307 307 307 307 308 307 308 308 309 309 308 309 308 308 308 307 308 307 307 309 309 308 309 310 313 313 311 312 312 311 312 311 312 313 313 314 314 315 314 314 313 313 315 315 314 314 314 313 315 319 319 317 319 320 318 319 319 318 318 318 318 311 310 313 315 314 315 319 319 313 313 314 313 314 313 314 315 315 316 315 316 316 315 316
310 309 308 307 307 307 307 308 307 307 308 308 307 307 307 307 306 306 306 306 306 306 308 309 308 310 310 310 312 313 312 312 312 311 312 311 312 313 314 315 314 315 315 314 314 314 315 314 313 318 318 314 314 317 319 319 319 319 319 319 317 316 315 318 320 314 312 314 315 317 316 319 320 313 313 314 313 313 314 314 314 315 315 316 316 316 316 316
309 309 308 308 307 307 307 307 307 307 307 307 306 305 305 305 305 305 305 306 307 308 310 309 308 312 313 310 311 313 312 312 312 311 312 312 312 314 315 314 314 315 314 314 315 314 314 313 314 317 319 317 314 316 321 322 321 321 322 325 323 320 318 318 319 312 311 316 317 318 318 319 320 316 313 315 313 311 313 314 314 314 314 315 315 315 315 315
309 309 308 307 307 307 307 307 307 307 306 306 306 305 306 307 308 308 308 308 309 309 310 310 308 312 313 310 311 313 312 312 312 312 312 312 313 315 315 314 315 315 315 317 317 313 314 316 316 318 317 317 317 316 317 317 318 320 322 326 323 321 319 316 317 312 308 315 318 316 318 318 319 318 312 312 312 310 311 312 313 314 314 314 314 314 315 314
309 308 308 307 307 307 307 307 306 306 306 306 305 306 307 308 309 309 309 309 309 310 311 310 308 311 312 310 312 313 312 312 312 312 312 313 315 315 314 314 315 315 314 315 315 314 316 316 318 320 316 315 316 315 315 315 316 318 321 323 320 318 319 314 315 314 309 313 317 314 317 318 317 318 312 309 310 310 311 312 313 314 314 314 314 314 315 314
308 308 307 307 307 307 307 306 306 306 306 306 306 307 307 307 309 309 308 308 309 310 312 310 308 311 311 311 313 313 312 312 312 312 313 314 315 314 314 315 315 316 313 312 315 318 318 318 319 316 310 309 312 314 317 319 321 322 320 321 321 318 317 315 315 315 312 313 319 319 319 318 316 316 311 308 310 311 312 312 313 314 313 314 314 314 314 314
308 307 307 307 306 307 306 306 306 306 306 306 306 308 307 307 311 309 306 308 308 310 311 310 310 311 311 312 313 313 312 312 312 313 314 314 315 314 313 314 316 317 315 315 318 318 318 319 318 309 306 311 314 314 317 319 320 323 322 319 319 318 318 319 315 314 313 312 316 319 318 316 315 317 316 310 308 310 311 312 313 313 313 314 314 315 315 314
307 307 306 307 306 306 306 305 306 306 306 306 306 307 307 307 310 309 307 308 309 311 311 310 310 312 312 313 313 312 312 312 312 313 313 315 314 313 313 313 315 316 315 317 318 317 318 315 309 306 310 317 315 313 317 318 315 319 328 328 323 323 321 317 315 316 316 313 315 316 316 322 325 326 328 317 308 308 310 311 312 313 314 315 315 315 316 316
307 307 306 306 306 306 306 306 306 306 306 306 306 307 307 308 310 308 309 310 309 311 311 310 311 312 312 313 313 313 312 312 312 313 313 315 314 313 313 311 314 316 315 316 315 316 316 310 308 312 315 318 316 315 318 321 316 315 325 328 324 328 324 318 319 322 322 318 314 312 315 331 334 327 327 322 313 311 309 307 309 313 314 312 314 315 315 315
307 307 307 306 307 307 306 306 306 306 307 307 307 308 307 308 309 308 311 313 312 310 310 311 311 311 312 313 313 312 312 313 313 313 314 314 313 313 313 311 312 314 314 314 314 316 314 309 312 318 319 318 318 317 316 319 319 315 317 319 322 329 325 320 320 319 321 317 311 312 316 322 324 319 318 318 317 317 314 308 309 313 314 312 313 314 314 314
309 308 308 307 307 307 306 306 306 306 308 308 307 308 308 309 309 309 312 312 311 311 309 309 309 310 312 313 313 312 313 315 313 313 313 314 313 312 313 313 311 312 311 312 315 315 313 313 315 319 323 321 318 317 315 318 320 315 315 318 325 328 324 325 323 319 320 316 315 321 320 316 317 316 316 316 317 320 319 317 312 311 313 313 313 314 314 314
311 310 310 309 307 307 307 307 306 306 307 308 308 309 309 310 308 310 313 310 310 311 309 308 309 310 312 312 312 312 313 314 314 314 313 313 313 312 314 314 313 315 309 311 318 314 312 318 318 319 323 320 319 318 315 320 324 316 313 318 323 324 327 330 329 325 319 312 318 324 315 313 321 321 318 315 315 317 319 320 314 309 313 315 314 315 314 315
313 313 313 311 309 308 309 308 306 305 307 308 309 310 310 310 308 310 312 309 309 311 309 308 310 311 311 312 311 311 312 313 314 314 312 313 313 311 313 311 311 314 309 311 322 316 311 315 314 317 321 318 318 316 312 321 326 314 310 316 318 321 326 328 326 323 316 313 322 323 312 312 320 325 324 315 314 319 322 322 314 308 314 317 315 315 314 315
315 316 315 314 311 310 310 308 306 305 307 308 309 310 309 310 311 310 308 309 312 311 307 308 310 311 311 311 311 311 312 313 313 313 312 313 313 311 312 310 310 316 316 317 323 317 310 310 310 313 315 314 314 312 310 315 314 310 315 320 319 322 325 327 328 320 312 318 325 320 313 311 313 323 328 317 315 319 318 322 317 310 314 317 315 315 315 316
316 316 317 317 314 312 312 309 307 305 306 308 308 309 309 312 315 311 307 310 315 311 307 308 310 310 311 311 312 311 312 313 311 312 313 312 313 311 311 311 312 317 319 319 320 316 312 312 312 311 310 310 313 315 311 310 308 312 324 323 317 321 322 324 328 318 313 322 322 315 312 311 311 320 324 318 318 317 314 320 321 313 314 317 316 317 317 317
317 318 317 318 316 315 314 310 308 307 306 308 308 307 310 312 312 312 310 310 314 312 310 311 310 311 311 312 315 314 315 315 310 312 316 315 314 313 313 315 317 316 315 317 318 316 315 315 312 310 310 311 318 321 315 315 317 317 322 320 316 319 317 319 325 319 317 321 315 313 314 311 312 317 316 316 319 316 310 312 316 313 312 316 317 317 317 317
318 319 318 318 318 318 316 311 309 309 308 308 306 309 316 314 309 312 315 313 312 312 312 313 312 311 311 312 314 314 314 315 312 311 313 315 314 313 314 316 317 318 317 319 319 316 318 319 314 313 314 312 316 320 318 319 320 316 317 319 318 318 315 318 322 315 315 318 312 311 314 314 317 315 314 316 313 311 308 308 312 313 313 316 316 316 316 316
318 318 318 318 319 319 318 314 310 309 309 308 307 311 315 313 310 314 316 313 313 313 312 313 311 310 311 312 313 313 314 313 312 313 313 314 315 314 315 312 312 320 322 318 318 317 317 319 318 317 315 314 314 316 320 321 317 315 316 315 317 323 322 320 322 318 317 318 314 310 314 322 322 313 313 312 308 308 311 311 312 312 314 316 315 316 317 315
317 318 318 318 319 319 319 317 313 310 309 308 309 311 310 309 312 314 313 313 316 315 312 312 311 310 312 312 311 312 313 313 312 313 314 315 315 315 315 312 312 320 320 315 315 316 314 317 319 314 311 314 315 313 316 319 317 315 313 312 314 320 323 316 314 317 316 315 316 313 316 324 320 313 312 308 306 309 309 311 313 312 314 315 315 316 316 315
315 317 318 317 317 318 319 319 316 313 311 311 310 309 309 312 315 316 313 314 316 313 311 312 312 313 311 311 312 311 311 314 314 313 314 314 314 314 315 314 312 314 315 316 318 315 314 316 316 312 310 312 313 310 310 313 316 314 312 316 317 314 321 319 310 310 311 311 316 314 316 321 315 314 316 312 310 313 311 311 312 312 314 313 315 316 314 314
312 313 314 314 316 317 317 318 318 315 313 313 311 309 311 314 315 318 317 314 312 312 312 312 312 313 312 311 313 312 311 315 314 313 315 314 314 314 315 314 311 310 312 314 317 317 318 317 313 313 315 311 308 309 308 307 312 317 317 319 314 309 317 321 314 316 316 314 317 315 314 317 315 316 320 315 312 315 317 314 310 311 314 312 314 315 312 313
312 312 312 313 314 315 315 316 317 317 316 315 312 313 317 316 313 315 316 311 310 313 315 314 312 313 313 312 313 312 312 315 314 314 315 313 314 314 314 314 310 309 309 309 311 315 317 317 313 311 315 313 310 312 313 309 309 315 317 313 313 315 318 316 313 318 317 314 319 319 314 312 312 315 318 314 314 318 318 315 312 313 314 312 314 313 312 313
313 312 312 313 312 312 314 316 316 316 317 316 314 315 318 317 312 313 315 313 314 314 313 316 315 312 312 312 312 311 311 313 313 314 314 312 313 313 311 313 312 309 307 308 311 313 312 314 314 311 311 312 313 313 316 316 311 310 311 308 314 321 321 317 314 316 316 314 318 320 318 316 314 315 316 313 318 322 318 317 315 313 312 313 313 313 313 313
313 313 313 313 312 312 313 316 316 316 316 316 315 315 315 316 313 312 314 315 317 315 315 319 317 313 313 312 312 311 312 314 313 313 314 312 312 312 310 311 313 310 307 307 310 313 311 311 312 313 311 312 316 315 315 317 314 313 314 312 314 316 315 316 315 314 317 318 318 317 316 320 320 316 315 314 319 321 318 318 316 311 311 314 312 313 314 314
312 312 312 312 313 313 314 316 315 314 315 315 315 315 315 315 313 312 313 315 315 314 317 320 318 316 316 313 312 312 312 314 313 313 314 311 311 313 311 310 311 311 309 308 310 314 312 311 316 317 314 315 319 316 312 314 315 314 314 314 315 314 314 316 314 312 314 315 318 316 312 317 320 316 315 317 319 315 309 310 313 311 312 314 314 315 316 316
311 311 311 312 313 314 315 315 312 311 314 314 313 314 314 314 313 311 311 313 315 314 315 318 318 320 321 318 316 314 313 314 313 313 315 312 312 315 313 310 310 309 310 311 311 311 311 314 320 320 317 318 317 310 306 310 315 313 314 314 314 314 315 316 316 316 314 311 314 315 314 315 314 311 312 313 310 307 306 308 311 312 313 315 316 316 316 316
310 310 311 312 313 314 314 314 312 310 311 312 311 312 312 313 313 311 310 312 315 316 318 319 317 317 318 319 317 315 313 314 313 313 316 314 312 313 311 310 310 309 310 313 312 309 310 315 316 317 318 319 318 313 308 309 313 313 315 315 314 314 317 319 320 318 317 315 314 314 315 314 310 306 305 305 304 305 309 311 311 312 314 315 316 316 316 316
309 310 311 312 312 313 312 312 312 311 311 311 312 312 312 312 314 313 313 314 315 317 320 320 316 313 315 316 317 316 314 313 313 313 315 314 312 311 310 310 310 309 309 313 313 310 311 316 315 315 317 316 317 318 315 313 313 315 317 317 315 315 316 316 316 313 314 319 318 315 314 314 312 309 306 309 311 310 310 311 311 313 315 315 315 316 316 316
308 308 309 310 311 311 311 312 312 311 311 311 312 312 312 312 313 313 313 313 313 315 317 317 314 314 316 316 316 317 315 315 317 315 314 316 315 312 310 310 310 309 310 312 311 309 314 317 315 314 314 313 314 316 316 317 315 315 320 318 315 315 315 314 315 314 314 317 317 315 314 313 312 312 312 315 317 314 311 311 313 313 314 314 314 314 314 315
308 308 308 309 309 309 310 311 311 311 312 312 312 312 312 313 313 313 312 312 312 312 314 314 313 315 318 316 316 318 317 315 318 316 315 319 319 313 310 310 310 309 310 311 310 312 318 318 314 312 313 313 312 312 316 320 318 316 318 317 314 314 314 314 316 316 314 314 314 314 313 313 313 313 314 316 318 318 313 310 311 313 312 313 313 313 313 313
307 307 307 308 309 309 309 310 310 311 312 311 312 312 312 313 314 313 313 313 312 312 312 313 313 315 317 316 317 319 317 316 317 317 318 320 318 314 310 310 310 309 310 310 309 313 319 316 314 314 313 312 314 315 316 318 317 316 316 315 314 314 313 314 315 315 313 313 314 314 313 313 312 313 316 318 319 319 312 308 310 312 312 313 313 312 313 313
305 305 304 306 308 309 309 310 310 310 311 311 311 312 312 312 313 314 313 313 312 312 313 314 314 314 315 316 317 317 317 317 317 317 318 318 316 315 313 312 310 310 310 309 309 314 319 317 316 315 312 313 318 320 317 316 316 316 315 315 315 313 313 314 314 314 314 314 314 313 314 315 312 311 316 316 313 313 311 309 311 312 312 313 313 312 313 313
302 303 302 303 306 306 307 309 309 310 311 311 311 312 312 312 312 313 313 314 313 313 314 315 314 314 314 314 315 316 317 317 317 317 317 317 317 317 317 316 312 309 310 313 312 313 316 319 320 316 313 314 318 319 316 315 315 315 315 315 314 313 313 313 313 313 314 314 314 314 315 315 312 312 314 313 310 310 310 310 311 311 312 313 313 313 313 313
301 302 302 302 303 303 304 308 310 310 310 310 311 311 311 311 312 312 313 313 314 314 314 315 315 314 314 312 313 315 316 316 317 317 317 318 317 315 318 319 314 310 312 316 316 312 312 317 319 317 316 317 317 316 314 313 314 315 315 315 314 313 312 312 313 313 313 313 313 313 314 314 311 311 311 310 310 310 310 310 311 312 312 312 312 313 313 313
300 301 301 302 303 303 303 306 308 309 310 310 310 310 310 311 311 312 313 312 313 314 314 314 314 314 314 312 313 314 314 314 316 316 315 316 315 314 315 315 313 314 315 315 316 316 314 315 316 317 317 318 316 315 314 313 314 315 316 317 315 313 312 311 312 312 313 313 314 313 314 313 312 310 309 309 309 309 309 311 311 312 312 312 312 312 313 313
299 300 300 301 304 304 303 305 307 309 310 309 309 309 309 310 309 310 312 312 311 313 314 313 313 314 314 314 314 314 313 313 314 313 313 314 313 311 312 311 311 315 316 314 314 316 316 316 318 317 317 317 315 314 314 315 315 316 316 315 314 312 312 312 312 312 312 312 314 314 313 312 313 313 313 312 310 309 310 311 312 312 312 312 312 313 313 313
Wind_Speed
23 23 21 20 20 20 21 22 21 21 21 22 23 24 25 25 26 26 26 25 24 24 23 22 21 19 18 15 14 13 12 12 12 14 16 15 14 13 14 13 11 12 12 11 11 11 10 10 11 12 11 10 8 11 9 4 5 2 3 4 2 4 3 5 7 7 4 4 8 12 16 10 6 10 12 7 6 10 12 10 9 14 11 7 7 5 14 24
22 21 21 20 20 20 21 22 21 21 21 21 22 24 25 25 26 25 24 23 23 23 22 21 19 18 16 14 14 13 12 12 12 15 16 13 13 14 15 12 10 11 12 12 12 11 11 11 12 13 11 9 6 9 10 5 4 3 3 3 3 6 3 4 6 8 4 3 10 13 14 12 9 12 13 7 4 9 8 7 9 11 11 9 9 8 16 23
21 19 20 20 20 21 22 22 22 21 21 22 23 24 24 24 24 23 23 22 22 22 20 19 18 16 15 14 14 12 11 10 12 16 16 14 14 15 16 13 10 12 12 12 12 11 12 11 13 14 11 8 6 8 9 5 4 2 3 2 5 7 3 3 4 8 6 4 11 12 11 10 10 13 13 8 5 5 7 9 10 11 13 12 10 11 18 22
21 19 19 20 22 23 23 24 23 22 22 23 23 23 23 23 23 22 22 22 21 20 19 18 17 16 15 15 14 12 10 8 11 16 15 14 15 15 15 13 11 12 12 12 12 11 11 11 12 13 9 6 5 8 7 5 4 2 4 3 5 5 3 3 2 4 7 7 12 13 9 7 9 12 11 11 7 3 11 17 16 14 15 15 13 14 18 21
21 20 19 21 23 23 24 24 23 23 23 23 23 22 22 22 22 22 22 21 19 18 18 17 16 16 16 15 13 12 10 4 9 16 15 15 15 15 14 13 13 12 13 13 13 12 11 10 12 11 7 3 4 5 4 5 6 3 1 2 4 5 2 2 1 1 4 8 12 11 8 7 9 10 11 14 9 7 13 17 18 15 14 15 15 15 18 21
20 19 19 21 23 23 25 25 24 24 24 23 23 22 22 21 21 21 20 19 18 17 17 17 16 16 16 15 13 13 12 2 6 16 15 15 15 14 14 13 13 12 13 13 13 13 10 10 12 10 5 2 4 4 4 7 6 3 1 1 4 4 1 2 1 1 5 11 13 11 8 8 9 7 11 16 14 11 9 11 15 15 13 14 16 16 18 20
20 18 18 21 23 24 24 25 25 24 24 24 23 23 22 21 21 20 19 18 17 16 16 16 16 16 16 15 13 14 15 5 5 17 16 15 15 14 14 13 13 13 14 14 14 14 11 10 12 10 5 3 3 3 5 7 4 3 2 1 4 3 2 3 2 2 6 9 11 11 8 8 9 5 7 16 20 15 7 6 11 16 15 15 17 17 17 18
20 19 19 21 24 25 26 26 26 26 25 24 23 23 22 21 20 19 18 17 16 16 16 16 15 16 15 14 13 12 15 8 6 16 17 15 15 15 15 13 13 13 14 14 14 14 11 10 12 10 4 1 5 5 6 6 2 3 3 4 5 3 3 3 3 4 5 7 8 9 7 6 8 5 5 15 20 15 11 8 8 13 17 17 17 18 18 19
21 20 19 21 23 25 27 27 28 27 25 24 23 23 21 20 19 18 18 17 16 16 15 16 15 16 15 14 13 8 12 10 7 15 18 15 15 15 14 13 13 13 13 13 13 14 12 11 13 10 4 4 6 6 8 6 1 2 5 6 6 4 4 4 4 5 6 6 7 7 3 2 6 3 7 15 17 15 14 12 9 10 15 18 18 19 19 20
21 21 20 21 22 23 26 28 29 27 25 24 23 22 21 20 19 17 17 16 16 15 15 16 16 17 15 14 12 6 11 12 6 14 18 16 16 15 14 13 12 12 12 13 12 13 14 12 13 10 4 5 7 5 6 4 3 7 10 9 7 4 4 3 4 5 6 5 4 6 2 1 4 2 5 8 9 14 16 15 13 11 12 15 17 19 20 20
21 21 22 21 21 23 25 25 27 27 25 24 23 22 21 20 18 17 17 16 16 15 15 16 16 17 15 14 12 7 11 13 7 14 19 16 16 15 15 13 11 11 12 13 12 12 13 11 13 10 3 5 8 5 4 4 6 13 14 9 6 4 3 2 4 4 4 3 2 4 1 2 1 2 6 4 4 9 15 18 17 16 14 14 15 17 20 21
22 22 22 22 22 23 25 24 24 26 25 24 22 22 21 20 19 17 16 15 15 15 15 16 16 17 15 13 15 10 9 11 9 14 19 17 17 16 15 14 12 11 10 11 11 11 11 10 12 9 4 9 8 3 4 7 10 12 10 4 5 6 3 1 2 3 3 2 2 4 1 4 3 7 7 5 5 6 12 18 19 19 18 16 16 17 20 21
22 23 23 23 23 24 25 24 24 25 26 25 23 22 21 19 18 17 16 15 14 15 15 16 16 16 14 11 13 13 9 10 11 15 18 18 17 17 15 13 12 11 10 10 10 11 10 8 9 8 9 12 6 5 8 8 9 6 4 4 2 6 4 2 1 2 3 2 3 5 1 6 8 13 9 5 5 5 9 16 19 20 20 20 19 19 20 21
22 24 24 24 23 24 25 24 25 26 26 26 24 22 20 18 17 16 15 14 14 15 15 16 16 15 14 8 9 13 10 9 12 16 18 18 17 17 15 13 11 11 11 10 10 11 10 7 8 8 10 10 9 11 8 5 5 2 2 3 2 1 4 5 1 4 4 1 2 5 2 6 8 10 7 9 11 9 11 15 19 21 21 22 21 21 22 22
22 25 25 25 24 24 25 25 25 25 25 24 23 21 19 18 17 15 15 14 14 14 14 16 16 14 11 7 6 12 13 9 12 17 18 18 17 15 14 13 11 11 10 10 10 11 10 8 8 8 9 11 14 11 4 4 4 3 2 1 3 2 5 7 1 5 5 1 1 5 2 6 8 7 1 5 11 12 15 16 17 20 21 22 23 23 23 23
22 25 26 26 25 25 25 25 24 25 24 22 22 21 19 18 16 15 14 14 14 14 14 15 16 13 6 5 7 10 13 12 13 18 18 17 16 13 12 12 11 11 10 10 11 12 12 10 9 9 9 10 10 6 5 4 3 4 3 2 2 2 3 4 1 1 2 2 1 2 2 4 5 4 4 5 1 5 11 14 15 18 19 21 22 23 24 23
23 25 26 26 25 25 25 24 23 24 23 22 22 20 19 18 16 16 15 14 14 13 14 13 15 12 4 5 7 9 13 13 15 19 18 17 15 12 12 11 11 11 11 11 12 13 12 9 9 7 5 4 3 5 5 1 3 2 2 2 3 3 2 2 2 3 3 2 1 3 1 6 7 8 4 1 3 4 8 11 13 15 17 18 20 22 23 24
24 26 26 26 25 25 25 24 23 24 23 22 21 20 19 17 16 16 15 16 15 13 12 12 13 8 6 9 9 10 14 14 16 19 18 17 14 12 12 12 12 13 13 12 10 11 8 5 6 3 3 3 2 5 5 4 5 5 3 3 2 2 3 3 2 2 3 3 2 1 2 9 11 12 16 16 11 10 12 14 15 16 18 19 21 23 25 26
25 26 26 26 25 25 25 24 25 24 24 22 20 20 19 18 16 15 17 18 16 10 6 12 17 5 3 12 13 11 15 15 17 19 18 17 14 13 13 12 14 16 14 8 5 6 6 4 5 3 2 3 5 5 6 7 8 9 6 5 4 3 3 5 4 4 1 3 3 4 4 8 10 10 16 22 16 12 16 17 19 21 22 23 24 27 28 30
25 25 26 26 26 27 26 26 25 24 25 23 23 23 19 18 12 8 17 19 14 6 0 12 23 5 4 13 19 14 16 16 17 19 18 17 16 14 13 13 14 12 7 5 3 3 5 4 3 5 7 7 7 6 5 4 7 8 6 5 3 3 2 3 2 5 1 3 3 3 4 8 11 10 16 23 17 11 16 19 22 25 26 27 27 29 31 32
25 26 27 27 28 28 27 27 25 25 26 24 28 24 17 20 11 6 17 14 10 7 1 12 25 10 2 12 20 17 17 16 16 20 18 17 17 14 12 12 9 5 1 3 5 2 4 5 6 7 8 7 6 7 7 7 6 6 6 5 2 1 2 2 2 4 3 1 3 2 3 9 11 11 16 20 12 11 20 21 25 28 28 29 29 30 32 32
28 28 30 30 31 30 28 29 26 27 27 27 32 22 16 24 15 14 21 9 9 9 1 13 23 12 3 11 17 17 16 11 12 19 18 18 18 11 9 8 6 4 1 3 6 4 3 3 8 7 6 7 6 5 7 7 6 5 4 5 3 1 2 3 3 4 4 1 3 4 6 9 11 10 14 19 16 17 23 23 26 28 29 31 32 33 34 33
29 30 32 32 32 31 29 30 27 28 28 29 32 20 16 23 13 16 22 7 8 9 3 14 18 11 8 12 16 16 14 9 10 18 19 19 17 11 10 7 5 5 3 4 6 5 2 5 7 7 9 9 6 4 8 7 5 5 4 5 2 2 1 1 3 4 4 2 1 3 5 8 8 6 11 17 18 18 20 22 25 26 28 31 31 32 33 34
29 30 31 31 31 30 29 29 28 29 28 28 30 19 16 21 15 18 17 5 4 6 5 13 13 12 12 12 16 15 11 9 11 19 21 19 16 10 9 7 6 5 3 5 8 7 4 5 5 9 6 8 7 4 7 7 3 2 3 6 3 3 4 2 2 2 3 3 3 3 5 6 5 5 7 8 7 10 12 14 18 21 23 25 25 26 26 28
27 27 28 28 28 28 28 28 28 29 28 28 28 18 15 19 17 18 11 5 2 3 5 11 9 11 12 11 15 13 9 8 9 19 22 20 17 10 6 7 6 4 3 5 7 5 3 2 7 9 4 6 9 4 5 6 3 2 3 6 7 7 6 2 2 4 4 5 4 5 4 6 5 5 7 6 5 8 8 8 17 22 21 22 24 25 24 24
24 24 25 26 26 27 26 24 26 28 27 28 26 18 16 19 20 18 8 5 1 2 4 9 7 10 13 11 15 13 6 5 8 19 22 19 16 10 6 4 3 3 5 5 4 2 1 1 4 7 6 6 7 4 5 5 6 1 3 5 6 7 8 6 4 4 2 2 3 4 2 5 7 5 8 6 7 10 10 10 19 25 23 21 24 25 24 22
23 22 23 23 24 25 23 21 26 28 25 25 23 18 18 20 21 17 6 5 2 4 7 7 6 11 13 13 18 12 4 5 9 15 20 18 15 10 7 3 2 3 5 5 2 1 2 3 5 6 7 6 6 3 5 6 8 3 3 6 8 8 8 6 6 4 2 3 4 5 4 2 6 6 6 5 6 10 11 11 16 21 21 19 19 20 17 14
22 22 21 21 22 23 22 21 26 28 25 22 21 19 19 22 22 13 5 2 2 5 6 6 7 10 13 17 19 9 6 11 9 9 18 18 13 7 4 5 5 4 2 5 4 3 1 3 3 5 6 4 4 4 5 8 6 3 4 7 6 7 7 5 6 4 1 1 4 5 2 2 6 7 5 5 4 8 11 11 12 16 18 14 11 9 8 7
21 21 20 20 20 21 20 20 24 27 25 21 20 19 20 23 19 8 3 2 2 4 4 7 9 9 12 15 11 5 8 8 4 9 17 15 10 5 3 6 8 7 4 4 5 3 1 2 4 6 6 4 3 2 3 4 3 5 7 7 6 6 6 5 5 4 3 2 5 6 2 2 5 7 5 2 2 7 9 8 9 13 15 10 6 3 0 3
21 21 19 18 20 21 20 20 24 26 24 22 20 19 21 20 12 5 2 4 2 2 3 7 8 8 12 10 2 2 5 2 4 13 12 8 8 5 6 7 8 8 5 7 4 1 2 1 1 3 3 5 5 3 2 2 6 11 8 7 7 7 6 4 3 4 3 3 6 6 3 1 3 6 4 3 4 6 4 6 7 12 14 10 7 7 7 8
21 21 19 17 20 22 19 20 23 24 26 24 19 19 17 10 4 4 5 3 3 2 2 4 3 6 13 10 3 2 2 2 5 11 7 4 5 5 7 6 4 5 3 4 3 4 4 3 1 1 1 5 7 6 6 5 7 8 5 5 4 4 4 4 5 4 1 5 6 5 2 2 4 6 4 5 6 6 5 5 6 10 13 11 10 9 9 9
22 20 20 18 20 21 19 20 22 24 26 24 21 18 12 4 1 5 4 1 3 3 4 4 3 5 9 6 4 3 3 2 2 6 5 4 4 4 4 5 4 4 1 3 1 3 2 1 3 2 2 4 6 5 5 5 5 5 5 6 5 2 3 2 3 0 3 6 4 3 2 3 6 7 8 10 10 6 7 9 8 11 13 9 8 7 6 6
23 21 22 21 20 20 19 19 21 24 25 26 24 14 7 3 6 5 2 1 2 2 4 4 2 5 9 7 4 3 3 2 3 3 2 3 3 4 2 2 5 5 3 4 3 2 0 4 3 2 2 5 5 6 4 1 0 4 5 5 4 3 2 2 4 2 4 4 3 3 2 3 5 5 9 13 9 5 7 10 10 11 13 9 5 3 3 3
25 23 23 22 21 20 19 18 21 23 26 28 21 8 4 5 5 3 4 4 1 2 2 4 6 7 7 5 5 4 3 1 4 4 2 3 4 5 4 3 3 5 4 4 3 5 4 4 4 3 2 6 5 4 7 6 4 3 3 6 5 5 5 4 4 3 4 3 3 4 1 3 2 2 6 11 11 11 12 14 11 8 9 11 10 8 4 2
23 24 24 23 21 19 18 18 19 22 27 27 15 5 6 7 3 2 5 4 1 2 3 4 8 8 4 1 1 4 2 1 3 4 4 5 5 6 5 5 5 4 5 5 2 3 3 4 5 2 1 7 6 3 5 7 2 1 2 5 3 4 5 3 3 5 3 1 3 2 3 5 4 6 9 9 11 12 10 11 8 6 6 9 12 12 11 9
15 19 20 19 20 19 18 18 18 20 24 20 9 5 7 4 3 4 4 4 4 5 6 4 4 5 4 1 1 4 0 2 4 3 2 3 2 5 5 4 6 6 5 6 3 1 3 3 5 3 1 2 2 1 3 4 3 2 2 3 4 4 7 5 2 1 4 1 4 2 4 5 3 7 9 6 7 10 8 7 6 6 6 7 10 12 13 12
11 13 14 15 16 15 15 16 17 18 18 12 7 7 4 1 3 4 1 3 7 9 9 5 2 4 5 3 4 6 2 2 4 3 3 3 2 5 5 4 6 9 7 5 2 3 5 1 4 1 1 2 3 4 5 5 4 5 3 6 4 2 4 4 2 3 3 3 5 1 4 5 2 4 7 6 3 8 8 7 7 9 9 7 10 13 13 11
11 10 10 12 12 12 13 15 16 16 11 7 5 4 1 1 2 1 1 2 6 7 5 5 3 3 5 5 5 5 4 4 5 4 4 3 4 6 7 4 5 11 12 4 2 2 5 2 4 2 2 3 4 4 3 5 4 4 5 4 4 3 1 2 2 2 1 3 4 4 5 4 5 5 4 3 4 7 9 8 7 9 9 10 15 17 15 12
11 8 6 8 10 10 12 13 15 13 6 4 7 4 1 2 1 2 2 1 3 5 4 4 2 2 5 6 5 5 5 5 7 5 4 4 4 5 8 6 3 10 15 8 3 2 4 3 3 2 1 2 3 2 4 0 4 4 3 3 3 2 4 3 2 3 3 3 3 4 5 4 6 6 6 7 8 8 8 7 6 10 10 12 15 13 9 6
13 7 3 8 11 10 11 13 13 10 4 3 5 2 1 1 2 2 4 3 2 3 2 3 2 3 5 4 3 4 4 4 7 5 3 5 5 4 6 6 3 6 10 7 4 2 2 2 4 2 3 1 2 3 7 7 4 3 4 4 2 1 2 2 1 2 4 4 2 2 5 6 5 4 8 10 9 8 8 7 7 9 8 9 9 6 4 5
14 5 2 11 13 12 14 13 7 4 2 1 2 2 1 1 2 3 6 5 4 4 3 4 4 4 5 3 2 4 4 4 6 5 3 5 5 3 4 6 6 7 6 3 3 4 2 3 4 2 1 4 5 4 4 8 7 6 6 7 7 5 4 3 2 1 2 3 4 3 5 8 5 4 7 8 8 8 8 7 5 4 5 4 5 7 8 7
14 3 4 13 14 16 17 9 2 1 1 2 3 3 2 1 2 2 3 5 4 3 4 4 2 2 3 3 2 4 6 4 5 5 3 5 6 3 3 4 8 13 11 3 2 4 3 4 5 3 4 6 5 4 2 3 2 3 3 5 6 5 5 6 5 3 1 1 2 4 3 8 4 4 5 4 5 6 6 6 3 1 3 6 9 9 7 7
12 5 7 15 17 20 15 4 1 2 1 2 4 3 3 2 2 2 1 1 2 2 3 2 1 2 2 2 2 5 6 5 5 6 3 3 4 2 1 4 8 11 9 2 1 3 4 4 4 1 3 4 5 5 3 2 3 1 2 2 5 4 4 5 5 4 4 4 3 3 4 7 3 2 3 4 3 3 5 6 4 2 6 7 7 6 5 5
11 7 9 15 19 21 13 2 3 4 2 4 4 2 3 2 1 3 2 1 1 2 3 1 1 2 1 2 3 4 4 3 4 4 2 2 3 1 2 3 8 8 5 3 4 8 6 2 4 3 2 3 4 4 3 2 2 3 3 3 5 5 5 4 2 3 2 6 8 5 7 7 3 4 2 2 1 3 5 5 4 6 8 7 5 4 3 2
9 6 6 11 16 17 9 2 4 5 4 5 4 4 4 1 4 7 5 3 4 4 3 1 2 4 2 2 3 2 1 2 2 2 1 0 1 0 4 1 8 7 3 2 5 10 8 3 5 6 5 6 6 5 5 4 2 2 3 6 7 8 9 5 2 3 5 7 8 6 9 7 2 3 1 2 3 4 4 5 6 7 7 5 2 3 5 6
6 3 3 4 7 10 7 3 5 5 5 6 4 4 7 3 2 7 8 5 5 5 4 1 3 5 2 1 3 1 1 3 2 2 2 2 2 1 4 4 4 5 3 4 6 7 4 2 5 9 10 11 9 7 5 8 7 6 8 10 9 9 12 8 4 5 9 6 4 7 11 11 7 2 3 5 5 5 4 3 4 2 1 6 9 11 12 13
4 1 4 3 2 5 5 4 5 4 5 8 4 3 9 6 1 4 7 6 8 8 3 2 2 3 1 4 3 2 2 2 3 2 2 3 2 2 2 3 4 3 3 5 6 6 4 2 7 9 11 10 5 5 6 10 12 14 13 12 12 11 11 11 9 12 11 5 7 12 10 11 15 9 7 9 7 5 7 7 6 8 10 14 18 18 17 17
3 0 4 5 3 3 3 6 8 4 5 9 5 3 8 8 4 5 5 3 6 10 5 1 4 6 6 6 3 2 3 2 1 3 2 2 1 2 3 2 2 2 2 3 4 5 4 4 5 5 9 8 3 3 7 9 10 12 13 14 14 13 14 15 17 17 12 8 12 16 11 12 19 13 9 11 11 8 11 12 10 9 11 15 18 18 17 18
2 1 3 4 2 1 2 7 11 7 5 8 5 3 8 11 10 7 4 3 3 8 8 5 6 10 8 6 5 3 4 4 4 4 4 3 3 2 1 1 1 1 2 2 1 2 4 3 2 3 6 8 5 4 6 9 9 8 11 13 14 16 18 19 20 19 16 13 15 16 11 13 16 9 8 13 14 11 10 9 8 10 12 15 17 18 19 20
2 1 2 3 3 3 3 7 10 7 5 6 5 4 7 10 12 8 5 6 5 5 8 9 8 9 9 9 8 7 8 7 5 5 6 5 3 3 3 3 2 2 2 2 1 1 3 3 1 4 3 6 4 3 4 7 8 7 8 10 11 14 17 18 17 15 13 13 16 15 13 14 10 7 10 14 13 10 9 10 13 16 18 20 20 21 20 19
6 3 3 4 2 1 1 3 6 5 4 5 5 5 7 10 11 7 3 8 10 8 10 13 9 7 8 10 11 11 13 13 10 7 9 10 8 7 6 3 3 4 2 2 2 1 1 2 2 4 3 6 3 5 4 3 1 3 8 11 13 13 13 12 12 12 12 14 15 13 13 14 7 8 9 10 11 12 13 13 17 19 19 20 20 18 17 16
11 6 3 3 1 1 1 1 3 5 5 7 8 5 4 6 8 8 4 7 12 15 17 17 11 6 5 9 14 19 19 17 15 12 10 13 13 12 13 10 7 7 4 2 1 1 3 3 1 2 4 5 2 5 6 5 1 5 10 15 16 12 8 8 10 13 13 13 11 11 14 13 4 5 6 5 9 10 12 13 17 20 19 17 16 15 15 15
Wind_Direction
199 191 187 182 177 177 177 180 183 185 189 195 199 199 195 189 188 187 185 184 183 183 183 185 187 192 196 199 199 199 203 207 212 216 219 216 211 207 199 196 193 189 188 181 176 177 175 176 181 177 176 172 164 172 167 164 170 152 96 97 148 172 195 187 175 193 174 177 187 178 176 164 154 172 177 175 174 169 168 187 188 192 211 212 205 209 183 182
201 190 184 181 177 176 175 177 180 180 183 187 189 188 183 181 182 181 180 180 181 183 185 186 188 194 196 195 194 197 204 208 215 219 217 211 204 200 196 194 189 186 182 175 175 176 175 176 178 175 171 164 157 170 173 171 148 118 104 100 203 201 203 199 185 194 175 170 180 177 183 175 166 167 167 168 172 166 168 194 193 196 205 192 196 200 187 186
204 193 183 180 179 175 174 176 177 177 181 184 185 184 180 179 180 180 180 182 183 185 185 187 191 195 194 190 190 195 202 210 221 219 210 202 199 194 195 197 188 182 179 173 174 175 177 178 175 173 168 158 155 169 168 166 163 126 109 104 234 212 204 232 206 196 205 201 171 169 181 178 172 167 168 173 162 175 194 196 194 200 197 188 188 186 186 189
202 196 186 181 180 176 174 175 175 177 181 184 186 185 182 180 181 181 182 183 184 185 186 190 193 193 190 186 187 191 195 209 224 215 202 196 193 188 194 197 186 181 179 173 174 175 176 175 172 170 164 153 147 166 170 165 180 157 127 170 224 187 161 212 191 199 222 204 173 166 165 174 177 174 177 162 138 247 227 207 207 210 200 190 187 183 187 194
199 195 189 183 179 177 175 174 174 177 182 184 185 185 183 181 182 183 184 184 184 186 189 193 194 190 186 184 185 183 176 182 219 207 195 191 188 186 191 190 185 183 179 176 175 173 173 173 171 167 160 153 137 153 181 161 149 127 142 226 179 151 132 188 161 198 200 172 166 159 155 176 177 183 192 171 162 229 228 221 220 220 214 207 202 192 190 196
201 196 191 184 179 180 177 173 173 178 183 184 185 186 184 183 183 182 184 186 186 189 193 195 193 188 184 184 184 178 176 174 201 192 189 188 185 187 187 185 185 184 182 179 176 174 175 175 174 175 155 133 155 150 164 160 149 137 257 274 150 168 177 144 152 181 161 158 164 166 168 177 168 193 209 195 207 222 227 241 229 224 226 222 216 203 198 200
205 201 196 188 181 181 179 173 173 179 184 184 185 185 184 184 184 182 184 187 190 192 195 196 192 189 185 184 183 183 197 226 184 183 186 184 185 187 184 184 186 186 186 180 180 181 179 177 178 180 146 94 174 159 139 152 143 122 162 209 139 177 198 139 115 147 168 171 175 173 173 179 175 191 214 215 226 227 231 251 232 227 225 222 218 214 214 211
207 203 198 192 185 182 181 176 174 180 183 184 185 184 184 186 185 184 185 188 192 193 196 196 192 190 186 186 186 190 209 225 179 180 184 184 185 183 181 183 186 187 185 182 185 188 187 184 180 176 157 143 178 157 136 132 74 94 154 179 134 129 169 146 108 123 160 169 169 172 173 188 191 195 229 230 231 227 228 236 234 226 221 221 220 221 224 220
205 202 197 194 190 185 184 179 175 179 183 184 185 184 184 187 188 186 186 189 192 193 195 196 194 192 189 190 188 192 209 205 179 182 184 184 184 181 181 180 182 184 182 183 188 194 196 190 183 181 190 190 160 145 146 139 238 174 147 154 135 111 134 151 141 121 138 150 158 171 162 180 190 224 263 244 236 229 226 223 227 222 217 219 221 224 226 226
203 199 196 193 190 189 190 185 177 177 181 185 185 185 185 187 189 188 188 190 191 193 194 195 194 192 192 191 185 191 201 194 186 185 184 184 182 179 179 176 178 181 182 184 187 194 196 194 191 184 182 174 144 129 149 148 194 159 126 112 101 99 116 146 163 134 131 137 153 172 184 257 169 204 260 245 230 224 221 217 220 222 218 219 223 227 229 231
201 197 196 193 190 190 193 191 181 175 180 185 185 184 185 187 189 190 190 191 191 192 194 196 195 193 194 191 189 193 194 194 195 186 184 182 181 179 177 175 176 179 186 186 184 187 191 198 189 176 175 167 141 113 135 146 151 141 126 97 41 54 103 106 145 150 137 126 148 153 165 306 123 213 232 216 212 219 219 217 219 222 223 223 226 229 230 232
201 198 197 194 192 192 191 192 186 178 178 184 185 185 184 187 189 190 191 191 191 192 194 196 194 193 193 195 203 203 192 197 197 185 185 183 181 182 179 179 181 185 190 188 185 181 182 187 182 184 174 153 143 98 129 139 132 129 122 109 349 8 40 7 117 152 154 129 151 125 61 292 239 228 225 211 225 221 216 219 220 223 227 229 231 231 231 232
202 199 198 196 194 193 190 189 187 182 180 182 185 184 185 187 187 188 191 191 192 192 194 194 194 194 190 197 211 208 199 201 196 185 185 186 184 185 184 185 190 194 195 191 189 184 179 179 184 185 158 148 138 119 134 123 118 120 88 105 16 9 357 305 68 144 153 138 162 135 213 275 251 240 228 202 209 204 213 220 223 227 232 234 234 234 234 233
205 200 198 198 196 192 190 188 187 185 183 182 183 184 185 185 185 187 188 189 191 192 193 192 191 193 192 202 215 209 205 199 192 187 187 188 187 188 189 191 195 200 202 196 191 188 185 182 179 163 146 143 128 122 115 62 78 96 56 59 49 104 270 300 21 148 143 175 193 127 188 262 271 267 244 221 228 233 234 229 227 230 234 236 236 238 239 238
207 203 198 198 196 191 190 189 187 187 186 183 181 181 182 182 183 184 185 188 189 189 192 190 189 188 195 214 218 208 207 202 192 187 187 189 189 191 193 195 198 199 200 196 189 185 180 178 169 141 125 131 127 117 67 18 29 39 96 316 344 162 257 310 348 159 146 190 157 112 214 265 276 294 340 222 238 241 241 237 231 232 236 238 239 241 244 245
209 204 199 197 194 190 189 190 189 187 185 183 180 178 179 180 181 182 184 186 183 185 187 187 187 182 186 216 213 206 204 202 191 186 187 188 188 191 192 194 194 192 189 185 181 173 168 165 146 122 119 130 125 104 63 41 356 3 102 189 269 171 261 316 342 216 124 133 57 88 226 271 289 285 76 78 298 237 233 236 233 236 241 242 243 245 248 251
210 204 200 196 192 190 188 189 188 185 183 181 178 176 176 176 178 179 179 178 177 178 181 183 182 183 209 220 206 200 197 195 186 183 185 184 186 188 188 184 180 182 174 164 167 164 161 153 135 126 107 108 106 95 94 32 275 295 54 123 221 192 198 276 301 327 51 111 297 22 254 256 280 278 258 305 336 285 248 246 243 243 247 248 249 250 251 253
210 203 198 194 192 189 185 187 186 184 181 178 176 173 171 170 170 172 171 169 165 161 171 177 168 175 239 218 200 194 192 188 180 181 182 182 184 182 180 175 169 169 157 149 158 160 155 132 122 131 42 62 120 113 132 208 193 187 176 144 209 213 202 241 250 278 41 74 240 6 300 264 272 284 276 275 287 287 275 269 265 260 256 255 255 256 257 258
207 201 195 192 190 186 183 184 184 183 177 173 171 165 160 157 155 161 165 163 159 151 168 182 171 159 267 200 190 189 186 180 176 178 181 182 180 178 174 165 164 161 149 141 152 154 138 102 100 129 141 162 187 163 169 198 172 169 171 144 154 171 224 243 247 273 81 109 236 232 243 269 277 288 283 279 285 288 282 278 273 268 263 260 258 259 260 260
202 196 191 188 185 182 182 183 183 181 173 168 165 158 152 147 134 147 167 167 167 161 181 186 184 193 358 179 180 179 175 172 176 177 180 182 176 171 164 156 158 153 145 147 153 145 118 129 169 184 191 190 187 166 138 135 135 137 125 104 137 165 243 255 268 311 49 141 254 246 246 272 274 277 276 279 287 284 274 273 269 267 264 262 260 261 262 262
194 188 184 181 180 181 182 181 182 179 170 166 165 161 160 159 144 161 171 174 186 182 324 185 187 209 337 170 173 168 164 165 177 179 178 179 170 165 161 153 148 137 153 137 120 96 99 153 208 215 201 177 157 147 111 91 91 100 120 115 91 160 229 258 254 318 11 129 262 347 319 274 265 268 272 276 279 261 257 257 259 262 263 263 262 262 263 264
184 180 178 177 179 181 181 179 179 177 171 169 170 167 173 173 171 176 170 168 191 187 258 183 187 208 198 167 169 163 159 157 176 183 178 173 170 171 169 149 132 145 164 106 102 63 74 196 232 218 171 116 98 111 97 85 84 80 108 123 117 183 247 294 299 329 16 46 267 348 340 279 265 264 266 264 256 253 255 253 257 262 263 263 263 262 264 266
177 175 175 176 178 179 179 177 177 177 175 175 174 171 177 180 180 176 168 150 173 182 192 178 186 199 172 164 171 166 161 152 173 184 179 174 174 174 165 142 119 139 135 136 138 123 141 246 233 175 142 115 87 80 95 85 77 85 107 125 163 243 170 256 299 330 16 64 266 324 316 282 279 284 272 264 256 259 262 258 259 260 260 262 263 265 265 266
171 172 174 174 176 177 176 177 177 178 179 178 178 177 179 183 180 169 161 94 147 178 175 176 186 192 174 166 175 175 170 162 173 181 180 178 174 168 165 144 116 131 153 157 146 147 198 255 154 127 121 123 114 102 118 112 64 42 135 136 164 204 166 177 307 340 5 22 30 10 324 291 310 329 292 280 274 270 266 260 260 256 256 260 263 266 266 266
165 167 171 172 174 176 176 178 177 177 180 180 181 183 181 183 176 164 150 59 126 184 176 180 188 191 184 175 178 176 167 168 174 179 181 181 174 161 155 145 131 158 176 142 131 148 222 244 139 121 78 104 118 138 166 141 102 318 216 172 172 170 157 144 32 49 35 357 351 24 356 289 314 318 275 295 328 296 287 280 270 265 262 261 263 267 268 270
160 163 168 171 174 176 175 176 178 178 180 182 185 186 183 180 170 164 145 48 239 212 165 179 183 186 189 181 171 159 153 186 179 178 180 180 179 164 144 140 107 155 171 143 130 160 216 49 115 126 109 98 102 134 193 146 116 197 233 170 147 128 125 125 95 76 79 271 320 40 101 266 303 286 261 298 325 301 300 293 276 273 272 271 271 274 275 276
157 160 165 171 174 176 173 174 179 178 177 183 187 184 182 176 167 164 131 35 264 183 147 172 176 178 184 174 165 154 150 175 160 176 179 177 184 171 159 179 84 137 172 139 132 218 156 70 57 90 97 95 110 152 202 142 121 200 222 129 119 115 128 137 106 93 196 240 329 14 111 239 290 265 265 322 326 301 294 284 278 280 286 289 284 281 283 281
154 157 163 170 174 176 175 177 181 179 177 180 181 180 178 171 167 161 116 59 207 146 141 172 163 168 173 167 168 157 138 151 141 177 180 174 181 168 166 199 151 139 153 129 173 256 114 140 154 118 92 114 172 212 187 128 104 228 190 118 117 119 125 119 98 94 30 10 315 315 126 196 270 274 307 344 310 287 281 273 278 293 304 309 300 289 280 260
155 156 158 164 169 174 179 179 180 180 178 172 170 174 170 166 165 142 91 178 160 107 134 158 154 167 165 158 166 144 131 147 129 164 172 171 178 158 134 178 140 111 56 85 163 229 44 178 194 138 125 178 204 256 179 126 87 169 140 95 77 72 78 74 85 97 39 15 257 256 201 198 266 285 314 355 267 261 272 274 278 305 325 334 343 7 150 172
160 155 152 160 166 171 176 176 179 181 177 168 162 163 158 158 157 125 167 213 143 90 117 150 162 167 155 145 137 112 126 115 110 138 153 163 166 136 112 134 119 100 41 34 89 243 340 22 78 102 140 174 143 81 61 80 125 136 112 71 58 33 35 46 49 77 55 304 256 249 245 196 270 282 262 214 219 222 260 298 294 325 352 13 36 65 99 111
164 156 155 166 168 166 166 170 177 181 179 172 160 154 151 142 117 141 189 197 116 102 94 142 174 155 156 154 142 148 94 47 128 138 140 137 143 128 115 126 99 81 45 30 49 326 359 56 3 344 148 134 108 66 41 57 104 114 88 80 79 360 13 27 1 40 116 255 262 263 261 164 222 262 249 240 255 229 226 262 275 318 348 21 49 67 89 98
169 170 167 166 162 158 156 164 173 176 180 180 170 161 148 115 187 190 196 153 140 181 167 167 206 164 158 141 121 152 111 83 152 141 141 140 148 168 156 164 151 100 146 188 148 339 28 66 305 327 230 166 113 75 42 22 38 76 89 97 89 356 8 357 311 343 221 243 268 280 245 202 232 250 255 264 270 244 222 230 250 299 325 3 42 57 75 88
177 180 172 166 159 153 149 155 164 169 175 178 174 162 113 121 204 197 178 198 183 180 150 136 132 148 148 134 143 163 102 126 186 139 125 119 144 204 231 180 146 120 181 183 125 121 276 310 306 73 259 221 148 120 130 268 115 126 131 127 124 123 108 270 266 276 262 255 283 287 250 255 271 263 247 251 256 258 264 265 274 299 309 318 331 353 46 70
183 182 173 167 161 154 150 151 157 162 166 168 164 142 109 180 204 145 150 212 235 56 80 107 114 130 141 144 179 173 97 124 176 131 116 109 133 205 233 220 158 96 112 148 141 165 179 277 226 164 200 198 178 166 157 146 148 176 152 130 141 154 159 210 219 212 244 276 300 292 251 207 224 280 249 248 267 281 280 275 279 291 294 294 293 292 287 299
178 179 178 174 168 161 153 153 157 159 162 160 151 140 181 195 208 129 161 193 192 58 44 77 115 132 147 71 193 196 139 164 167 121 147 164 167 194 196 200 192 131 127 159 200 167 155 248 251 291 176 164 171 202 136 111 109 242 116 108 157 183 141 135 184 176 174 319 303 259 238 216 210 279 276 268 282 289 279 268 273 290 290 282 281 283 285 293
171 176 182 185 181 171 162 159 158 160 163 156 145 191 202 192 189 184 163 148 151 131 108 78 84 131 168 123 193 225 219 106 149 135 179 198 204 200 197 206 190 173 158 154 174 160 138 260 292 347 8 133 126 170 116 112 171 164 128 174 214 175 113 111 212 49 84 250 274 218 252 292 329 294 291 297 289 295 300 284 279 291 287 272 270 279 291 300
179 178 181 189 190 183 173 163 157 164 168 158 166 200 200 136 177 188 152 123 141 137 130 136 143 147 163 167 191 202 178 110 149 163 187 200 231 196 196 239 193 184 187 149 163 201 149 215 305 24 175 312 27 93 67 48 111 124 177 206 192 126 87 107 191 360 47 245 275 271 245 282 318 272 312 353 290 275 287 288 297 292 282 286 289 290 301 314
186 179 183 195 196 193 185 172 168 170 164 156 188 200 135 128 184 143 19 123 130 128 135 158 162 143 162 180 192 183 171 165 168 174 171 188 244 192 168 208 195 189 201 169 97 209 140 145 303 11 172 301 9 101 82 16 54 121 171 167 120 138 167 97 152 182 148 245 278 301 281 253 207 227 294 327 223 234 253 268 295 284 279 305 307 302 311 327
193 180 185 205 201 194 191 186 180 171 155 173 197 202 141 161 165 60 42 62 111 121 153 178 150 120 168 172 167 169 181 177 169 178 177 182 237 201 169 188 190 192 199 178 125 194 141 147 256 309 281 309 15 144 193 272 34 63 109 115 86 133 165 161 153 162 173 207 260 309 318 270 222 207 203 214 218 218 228 241 258 258 272 308 310 307 320 345
189 176 185 210 206 196 189 185 178 168 167 199 183 183 239 135 118 66 53 53 70 87 154 191 141 134 165 161 154 169 176 168 165 182 204 187 207 225 197 192 163 176 188 167 139 164 125 163 216 294 327 219 197 215 188 168 147 122 139 164 178 88 103 156 160 117 140 163 197 278 291 267 247 202 185 201 217 209 200 203 225 248 277 312 320 336 38 73
178 167 198 200 200 191 175 169 168 164 168 172 127 136 200 120 110 71 55 68 77 67 103 144 143 150 152 143 174 177 155 149 168 184 212 198 197 217 214 194 157 143 141 130 173 183 151 159 168 156 247 207 230 253 190 175 173 167 179 189 179 157 125 148 240 279 115 155 176 182 270 267 242 200 188 190 206 211 202 195 207 261 315 354 39 62 71 73
168 161 202 188 189 186 173 159 125 86 104 145 131 128 145 116 110 108 53 62 76 67 74 97 126 147 141 146 170 163 151 152 176 187 207 206 195 184 193 196 167 156 149 142 202 176 122 109 131 169 216 219 248 282 233 190 142 125 188 192 174 166 143 152 206 232 152 206 166 127 277 274 238 189 207 221 235 227 211 198 194 28 47 67 69 71 74 78
165 162 180 180 184 184 176 156 128 141 84 152 136 117 144 122 89 121 116 54 68 64 65 74 99 101 123 151 148 162 166 167 181 190 202 205 197 184 156 175 170 159 152 150 208 149 116 106 138 214 307 303 311 334 356 37 86 121 255 174 164 184 152 149 181 177 163 200 160 111 258 266 293 303 268 284 272 211 189 195 194 84 79 83 78 87 100 100
159 148 163 179 186 182 176 174 180 176 164 148 134 122 169 192 155 153 143 129 144 94 90 121 72 84 112 99 118 171 183 176 190 195 188 178 180 172 40 161 175 167 160 181 175 170 179 162 131 130 353 334 335 335 310 286 183 199 230 192 181 166 116 98 131 130 205 217 178 172 240 252 308 329 309 4 59 167 184 187 156 89 87 97 102 110 122 135
150 140 168 191 188 178 178 201 169 170 165 153 154 157 159 211 219 191 171 149 170 149 129 168 97 102 123 73 82 112 93 105 173 173 143 230 226 43 19 129 185 186 187 180 163 166 180 190 148 155 191 206 211 223 215 196 174 200 216 198 193 171 155 164 157 147 227 225 177 190 239 248 316 357 349 56 103 165 182 155 128 113 106 93 38 316 298 294
151 151 178 197 189 186 208 236 156 162 175 166 161 165 171 187 219 187 176 174 196 171 114 107 87 76 75 120 110 131 56 64 88 120 136 190 255 314 33 53 143 171 162 151 161 155 143 210 193 189 207 211 211 219 176 139 154 205 215 196 192 189 180 174 143 177 217 217 188 225 239 247 260 238 203 222 196 196 217 173 150 169 290 321 311 297 292 294
149 202 169 141 168 195 226 240 190 166 162 166 167 170 179 182 109 181 184 192 200 184 127 78 126 94 184 178 146 184 198 88 84 115 153 179 229 297 5 45 68 106 133 143 163 147 106 241 216 205 223 225 211 211 184 157 176 202 207 196 195 193 181 180 196 213 212 197 233 237 223 239 253 228 199 228 221 212 250 263 276 289 291 289 286 283 283 286
154 247 167 158 172 190 209 208 192 166 144 165 176 162 173 181 179 184 191 192 183 177 166 148 175 184 195 174 146 169 179 149 158 181 170 165 166 16 1 351 36 70 117 134 158 140 131 228 217 198 232 238 201 192 195 181 191 205 203 199 197 189 183 194 212 220 206 190 237 240 201 215 247 237 198 221 229 235 263 280 287 281 269 265 266 269 275 282
158 96 163 165 159 150 164 170 168 166 161 169 179 170 173 187 195 187 157 118 161 185 188 195 195 198 192 161 148 176 183 190 207 193 167 156 165 135 75 262 257 36 84 108 131 133 151 226 210 154 229 245 222 200 196 189 198 213 210 205 199 194 195 201 213 222 217 212 237 247 229 233 248 232 192 220 232 239 255 268 264 254 255 259 262 268 276 281
171 177 160 138 97 73 91 146 158 171 183 176 193 202 187 193 197 189 156 159 172 183 196 206 199 187 180 168 174 206 212 202 205 196 171 162 183 193 192 200 176 95 60 91 73 113 170 205 78 111 212 259 240 192 184 187 199 215 223 221 211 205 207 211 217 223 222 229 242 249 257 262 247 187 197 221 223 228 237 242 251 258 263 265 267 271 276 279
197 194 140 125 94 72 93 132 152 168 187 192 199 194 196 207 198 178 176 200 188 168 184 202 195 170 175 178 187 210 213 204 210 207 178 184 205 197 190 201 142 115 87 123 127 60 131 183 60 94 206 253 231 176 158 119 132 241 247 237 220 212 213 214 218 218 210 221 237 240 250 257 227 171 207 210 192 213 232 238 253 263 266 268 270 273 279 283
202 206 180 132 68 198 170 85 151 175 193 205 202 181 174 195 180 164 184 227 209 195 195 195 181 158 171 186 203 217 215 209 218 225 210 213 220 199 189 197 172 146 139 111 108 91 116 131 99 133 211 247 213 157 138 96 89 248 243 230 216 210 212 211 224 230 216 210 221 224 235 247 216 162 224 194 159 200 231 239 254 265 267 268 271 276 282 283